Location: N�rnberg
(49.4471°N, 11.0632°E)
Time: 00:41:22
(UTC+01:00)

Tiangong - Pass Details

Date: 19 February 2026
Orbit: 381 x 391 km, 41.5° (Epoch: 7 March)

Event Time Altitude Azimuth Distance (km) Brightness Sun altitude
Rises 18:50:53 0° 256° (WSW) 2,258 3.6 -11.9°
Reaches altitude 10° 18:53:38 10° 230° (SW) 1,400 1.5 -12.3°
Maximum altitude 18:55:25 14° 196° (SSW) 1,174 0.5 -12.6°
Drops below altitude 10° 18:57:12 10° 161° (SSE) 1,395 0.5 -12.9°
Enters shadow 18:58:04 - 150° (SSE) 1,627 0.8 -13.0°
